Location: Étang Rond
(42.7927°N, 1.0661°E)
Time: 23:55:04
(UTC+00:00)

Cosmos 2237 Rocket - Visible Passes

Search period start: 15 February 2026 00:00
Search period end: 25 February 2026 00:00
Orbit: 834 x 849 km, 71.0° (Epoch: 15 February)

Date Brightness Start Highest point End Pass type
(mag) Time Alt. Az. Time Alt. Az. Time Alt. Az.
15 Feb 2.2 18:01:01 10° NNW 18:06:42 67° ENE 18:12:21 10° SSE visible
15 Feb 4.9 19:46:27 10° WNW 19:50:07 18° W 19:53:46 10° SW visible
16 Feb 4.9 19:31:07 10° WNW 19:34:57 19° W 19:38:47 10° SW visible
17 Feb 4.9 19:15:47 10° NW 19:19:47 20° W 19:23:47 10° SW visible
18 Feb 4.9 19:00:28 10° NW 19:04:36 21° W 19:08:45 10° SSW visible
19 Feb 4.9 18:45:09 10° NW 18:49:27 22° W 18:53:43 10° SSW visible
20 Feb 5.8 06:11:59 10° ESE 06:14:22 13° E 06:16:46 10° ENE visible
20 Feb 4.8 18:29:52 10° NW 18:34:17 24° WSW 18:38:41 10° SSW visible
21 Feb 5.9 05:57:12 10° ESE 05:59:13 12° E 06:01:15 10° ENE visible
21 Feb 4.8 18:14:34 10° NW 18:19:06 25° WSW 18:23:38 10° SSW visible
22 Feb 5.9 05:42:30 10° ESE 05:44:04 11° E 05:45:38 10° E visible
22 Feb 4.8 17:59:17 10° NW 18:03:56 26° WSW 18:08:34 10° SSW visible
23 Feb 5.9 05:28:03 10° ESE 05:28:54 10° E 05:29:47 10° E visible
